Location: Sigmaringen
(48.0900°N, 9.2120°E)
Time: 20:16:44
(UTC+01:00)

ISS - Pass Details

Date: 12 November 2017
Orbit: 402 x 407 km, 51.6° (Epoch: 22 November)

Event Time Altitude Azimuth Distance (km) Brightness Sun altitude
Exits shadow 04:19:51 11° 71° (ENE) 1,376 -0.3 -30.9°
Drops below altitude 10° 04:20:04 10° 73° (ENE) 1,457 -0.2 -30.9°
Sets 04:22:13 0° 80° (E) 2,317 1.2 -30.5°
